When you browse on this site, cookies collect data to enhance your experience and personalize the content and advertising you see.
Visit our Privacy Policy to learn more. By continuing to use the site, you agree to this use of cookies and data.

Tiempo cada hora Bolgatanga

Hoy, 3 Julio, Viernes

Tiempo Temperatura Precipitaciones Viento Presión Humedad
00:00 +27°C° 0 mm 0 mps 742 mmHg 69%
01:00 +29°C° 0 mm 1 mps 741 mmHg 71%
02:00 +29°C° 0 mm 1 mps 741 mmHg 72%
03:00 +29°C° 0 mm 1 mps 741 mmHg 74%
04:00 +28°C° 0 mm 2 mps 741 mmHg 76%
05:00 +28°C° 0 mm 2 mps 741 mmHg 78%
06:00 +27°C° 0 mm 3 mps 741 mmHg 80%
07:00 +29°C° 0 mm 3 mps 741 mmHg 75%
08:00 +30°C° 0 mm 4 mps 741 mmHg 70%
09:00 +32°C° 0 mm 4 mps 742 mmHg 65%
10:00 +34°C° 0 mm 4 mps 741 mmHg 59%
11:00 +36°C° 0 mm 4 mps 741 mmHg 52%
12:00 +37°C° 0 mm 4 mps 741 mmHg 45%
13:00 +38°C° 0 mm 3 mps 740 mmHg 41%
14:00 +39°C° 0 mm 2 mps 739 mmHg 38%
15:00 +40°C° 0 mm 1 mps 739 mmHg 34%
16:00 +39°C° 0 mm 1 mps 739 mmHg 36%
17:00 +39°C° 0 mm 1 mps 738 mmHg 38%
18:00 +37°C° 0 mm 1 mps 738 mmHg 40%
19:00 +35°C° 0.1 mm 1 mps 739 mmHg 44%
20:00 +34°C° 0.1 mm 1 mps 740 mmHg 48%
21:00 +34°C° 0.1 mm 2 mps 740 mmHg 52%
22:00 +32°C° 0.7 mm 2 mps 740 mmHg 58%
23:00 +31°C° 0.7 mm 3 mps 740 mmHg 64%

Mañana, 4 Julio, Sábado

Tiempo Temperatura Precipitaciones Viento Presión Humedad
00:00 +30°C° 0.7 mm 3 mps 741 mmHg 70%
01:00 +29°C° 0 mm 4 mps 740 mmHg 72%
02:00 +29°C° 0 mm 4 mps 740 mmHg 74%
03:00 +29°C° 0 mm 5 mps 740 mmHg 75%
04:00 +29°C° 0 mm 5 mps 740 mmHg 77%
05:00 +28°C° 0 mm 5 mps 740 mmHg 78%
06:00 +28°C° 0 mm 5 mps 740 mmHg 80%
07:00 +28°C° 0 mm 5 mps 741 mmHg 77%
08:00 +29°C° 0 mm 5 mps 741 mmHg 74%
09:00 +30°C° 0 mm 5 mps 742 mmHg 71%
10:00 +32°C° 0 mm 5 mps 742 mmHg 65%
11:00 +34°C° 0 mm 4 mps 742 mmHg 59%
12:00 +35°C° 0 mm 4 mps 742 mmHg 53%
13:00 +35°C° 0 mm 4 mps 741 mmHg 52%
14:00 +36°C° 0 mm 4 mps 740 mmHg 51%
15:00 +36°C° 0 mm 4 mps 740 mmHg 50%
16:00 +35°C° 0 mm 4 mps 740 mmHg 53%
17:00 +34°C° 0 mm 4 mps 740 mmHg 56%
18:00 +33°C° 0 mm 4 mps 740 mmHg 58%
19:00 +32°C° 1 mm 4 mps 740 mmHg 64%
20:00 +30°C° 1 mm 3 mps 741 mmHg 71%
21:00 +28°C° 1 mm 3 mps 741 mmHg 77%
22:00 +28°C° 0.4 mm 3 mps 741 mmHg 78%
23:00 +28°C° 0.4 mm 3 mps 741 mmHg 79%

Pasado mañana, 5 Julio, Domingo

Tiempo Temperatura Precipitaciones Viento Presión Humedad
00:00 +27°C° 0.4 mm 3 mps 742 mmHg 80%
01:00 +27°C° 0.2 mm 3 mps 741 mmHg 82%
02:00 +27°C° 0.2 mm 4 mps 741 mmHg 83%
03:00 +27°C° 0.2 mm 5 mps 741 mmHg 85%
04:00 +26°C° 0 mm 5 mps 741 mmHg 86%
05:00 +26°C° 0 mm 5 mps 741 mmHg 87%
06:00 +26°C° 0 mm 5 mps 742 mmHg 88%
07:00 +27°C° 0 mm 5 mps 742 mmHg 84%
08:00 +27°C° 0 mm 5 mps 743 mmHg 79%
09:00 +28°C° 0 mm 5 mps 743 mmHg 75%
10:00 +29°C° 0 mm 5 mps 743 mmHg 70%
11:00 +30°C° 0 mm 4 mps 743 mmHg 66%
12:00 +33°C° 0 mm 4 mps 743 mmHg 61%
13:00 +33°C° 0 mm 4 mps 742 mmHg 59%
14:00 +34°C° 0 mm 4 mps 741 mmHg 57%
15:00 +34°C° 0 mm 4 mps 741 mmHg 55%
16:00 +34°C° 0 mm 3 mps 741 mmHg 56%
17:00 +33°C° 0 mm 3 mps 741 mmHg 58%
18:00 +32°C° 0 mm 2 mps 741 mmHg 59%
19:00 +30°C° 0 mm 2 mps 741 mmHg 64%
20:00 +29°C° 0 mm 3 mps 742 mmHg 69%
21:00 +28°C° 0 mm 3 mps 742 mmHg 75%
22:00 +27°C° 0 mm 3 mps 742 mmHg 76%
23:00 +27°C° 0 mm 3 mps 742 mmHg 78%

6 Julio, Lunes

Tiempo Temperatura Precipitaciones Viento Presión Humedad
00:00 +27°C° 0 mm 3 mps 742 mmHg 79%
01:00 +26°C° 0 mm 2 mps 742 mmHg 80%
02:00 +26°C° 0 mm 2 mps 742 mmHg 81%
03:00 +26°C° 0 mm 2 mps 741 mmHg 82%
04:00 +26°C° 0 mm 2 mps 742 mmHg 82%
05:00 +25°C° 0 mm 2 mps 742 mmHg 82%
06:00 +25°C° 0 mm 2 mps 742 mmHg 83%
07:00 +27°C° 0 mm 3 mps 742 mmHg 78%
08:00 +28°C° 0 mm 3 mps 743 mmHg 73%
09:00 +30°C° 0 mm 4 mps 743 mmHg 67%
10:00 +31°C° 0 mm 3 mps 742 mmHg 61%
11:00 +34°C° 0 mm 3 mps 742 mmHg 55%
12:00 +35°C° 0 mm 3 mps 741 mmHg 49%
13:00 +36°C° 0 mm 3 mps 741 mmHg 46%
14:00 +37°C° 0 mm 3 mps 740 mmHg 43%
15:00 +38°C° 0 mm 3 mps 740 mmHg 39%
16:00 +37°C° 0 mm 2 mps 740 mmHg 42%
17:00 +36°C° 0 mm 2 mps 739 mmHg 46%
18:00 +35°C° 0 mm 2 mps 739 mmHg 49%
19:00 +34°C° 0.1 mm 2 mps 740 mmHg 52%
20:00 +32°C° 0.1 mm 2 mps 740 mmHg 56%
21:00 +31°C° 0.1 mm 3 mps 740 mmHg 60%
22:00 +30°C° 0 mm 3 mps 741 mmHg 63%
23:00 +30°C° 0 mm 3 mps 741 mmHg 66%

7 Julio, Martes

Tiempo Temperatura Precipitaciones Viento Presión Humedad
00:00 +29°C° 0 mm 3 mps 741 mmHg 69%
01:00 +29°C° 0 mm 3 mps 741 mmHg 70%
02:00 +28°C° 0 mm 3 mps 741 mmHg 72%
03:00 +28°C° 0 mm 3 mps 740 mmHg 74%
04:00 +27°C° 1.8 mm 3 mps 741 mmHg 79%
05:00 +27°C° 1.8 mm 3 mps 741 mmHg 83%
06:00 +26°C° 1.8 mm 3 mps 741 mmHg 88%
07:00 +27°C° 0 mm 3 mps 741 mmHg 83%
08:00 +29°C° 0 mm 4 mps 741 mmHg 78%
09:00 +30°C° 0 mm 5 mps 742 mmHg 73%
10:00 +33°C° 0 mm 4 mps 741 mmHg 65%
11:00 +34°C° 0 mm 4 mps 741 mmHg 58%
12:00 +36°C° 0 mm 3 mps 741 mmHg 50%
13:00 +37°C° 0 mm 3 mps 740 mmHg 47%
14:00 +38°C° 0 mm 3 mps 739 mmHg 44%
15:00 +38°C° 0 mm 3 mps 739 mmHg 41%
16:00 +37°C° 0 mm 3 mps 739 mmHg 45%
17:00 +36°C° 0 mm 3 mps 738 mmHg 48%
18:00 +35°C° 0 mm 2 mps 738 mmHg 52%
19:00 +34°C° 0.1 mm 3 mps 739 mmHg 55%
20:00 +33°C° 0.1 mm 3 mps 739 mmHg 59%
21:00 +31°C° 0.1 mm 3 mps 740 mmHg 62%
22:00 +32°C° 0 mm 4 mps 740 mmHg 64%
23:00 +30°C° 0 mm 4 mps 740 mmHg 67%

8 Julio, Miércoles

Tiempo Temperatura Precipitaciones Viento Presión Humedad
00:00 +30°C° 0 mm 4 mps 740 mmHg 69%
01:00 +29°C° 0.2 mm 4 mps 740 mmHg 72%
02:00 +29°C° 0.2 mm 4 mps 740 mmHg 75%
03:00 +28°C° 0.2 mm 4 mps 740 mmHg 78%
04:00 +28°C° 0 mm 4 mps 740 mmHg 79%
05:00 +28°C° 0 mm 5 mps 740 mmHg 81%
06:00 +27°C° 0 mm 5 mps 740 mmHg 82%
07:00 +28°C° 0 mm 5 mps 741 mmHg 78%
08:00 +29°C° 0 mm 5 mps 741 mmHg 75%
09:00 +30°C° 0 mm 5 mps 741 mmHg 71%
10:00 +33°C° 0 mm 4 mps 741 mmHg 65%
11:00 +34°C° 0 mm 4 mps 741 mmHg 59%
12:00 +36°C° 0 mm 4 mps 740 mmHg 53%
13:00 +36°C° 0 mm 4 mps 740 mmHg 51%
14:00 +37°C° 0 mm 3 mps 739 mmHg 48%
15:00 +38°C° 0 mm 3 mps 739 mmHg 46%
16:00 +37°C° 0 mm 3 mps 739 mmHg 48%
17:00 +36°C° 0 mm 2 mps 739 mmHg 51%
18:00 +35°C° 0 mm 2 mps 739 mmHg 53%
19:00 +34°C° 0.1 mm 2 mps 739 mmHg 56%
20:00 +32°C° 0.1 mm 2 mps 740 mmHg 59%
21:00 +31°C° 0.1 mm 2 mps 740 mmHg 62%
22:00 +31°C° 0 mm 3 mps 740 mmHg 65%
23:00 +30°C° 0 mm 3 mps 740 mmHg 68%
Mostrar más